Litchfield, IL

9:00 AM CDT on March 23, 2017 (GMT -0500)
Litchfield

Weather History for K3LF - January, 2014

Change the Weather History Date:

Wednesday, January 22, 2014

  Actual Average (KALN) Record (KALN)
Temperature  
Mean Temperature 16 °F -  
Max Temperature 25 °F 35 °F 57 °F (1999)
Min Temperature 6 °F 21 °F 8 °F (2003)
Degree Days  
Heating Degree Days 48    
Moisture  
Dew Point 9 °F    
Average Humidity 73    
Maximum Humidity 86    
Minimum Humidity 62    
Precipitation  
Precipitation 0.00 in - - ()
Sea Level Pressure  
Sea Level Pressure 30.11 in    
Wind  
Wind Speed 11 mph (WSW)    
Max Wind Speed 25 mph    
Max Gust Speed 32 mph    
Visibility 10 miles    
Events Snow    
Averages and records for this station are not official NWS values.
T = Trace of Precipitation, MM = Missing Value Source: NWS Daily Summary

Daily Weather History Graph

Daily Weather History Graph

Search for Another Location

Airport or City:

Trip Planner

Search our weather history database for the weather conditions in past years. The results will help you decide how hot, cold, wet, or windy it might be!

Date:

Astronomy

Jan. 22, 2014 Rise Set
Actual Time 7:12 AM CST 5:08 PM CST
Civil Twilight 6:44 AM CST 5:36 PM CST
Nautical Twilight 6:11 AM CST 6:09 PM CST
Astronomical Twilight 5:39 AM CST 6:41 PM CST
Moon 11:37 PM CST (1/22) 10:16 AM CST (1/22)
Length of Visible Light 10h 52m
Length of Day
9h 55m
Waning Gibbous, 65% of the Moon is Illuminated
Jan 22
Waning Gibbous
Jan 23
Last Quarter
Jan 30
New
Feb 6
First Quarter
Feb 14
Full

Hourly Weather History & Observations

Time (CST) Temp. Windchill Dew Point Humidity Pressure Visibility Wind Dir Wind Speed Gust Speed Precip Events Conditions
12:15 AM 8.6 °F - 1.8 °F 74% 30.22 in 10.0 mi Calm Calm - N/A   Mostly Cloudy
12:35 AM 8.6 °F 0.1 °F 2.3 °F 76% 30.20 in 10.0 mi SE 4.6 mph - N/A   Scattered Clouds
12:55 AM 9.0 °F 0.6 °F 1.9 °F 73% 30.20 in 10.0 mi SE 4.6 mph - N/A   Scattered Clouds
1:15 AM 9.0 °F -0.9 °F 2.5 °F 75% 30.19 in 10.0 mi SE 5.8 mph - N/A   Mostly Cloudy
1:35 AM 9.0 °F -0.9 °F 2.3 °F 74% 30.18 in 10.0 mi SSE 5.8 mph - N/A   Overcast
1:55 AM 9.3 °F -0.5 °F 3.0 °F 76% 30.18 in 10.0 mi SSE 5.8 mph - N/A   Overcast
2:15 AM 9.3 °F -1.7 °F 2.7 °F 74% 30.17 in 10.0 mi SE 6.9 mph - N/A   Overcast
2:35 AM 9.5 °F -1.5 °F 3.2 °F 76% 30.16 in 10.0 mi SSE 6.9 mph - N/A   Overcast
2:55 AM 9.3 °F -2.8 °F 3.4 °F 77% 30.13 in 10.0 mi SSE 8.1 mph - N/A   Overcast
3:15 AM 9.5 °F -3.5 °F 3.6 °F 77% 30.12 in 10.0 mi South 9.2 mph - N/A   Mostly Cloudy
3:55 AM 10.0 °F -2.9 °F 4.1 °F 77% 30.11 in 10.0 mi SSE 9.2 mph - N/A   Overcast
4:15 AM 10.2 °F -3.5 °F 4.3 °F 77% 30.10 in 10.0 mi SSE 10.4 mph - N/A   Overcast
4:35 AM 10.6 °F -3.1 °F 5.0 °F 78% 30.10 in 10.0 mi SSE 10.4 mph - N/A   Overcast
4:55 AM 11.1 °F -1.6 °F 5.9 °F 80% 30.09 in 10.0 mi SSE 9.2 mph - N/A   Overcast
5:15 AM 11.8 °F -1.5 °F 6.6 °F 80% 30.09 in 10.0 mi South 10.4 mph - N/A   Overcast
5:35 AM 12.0 °F -2.7 °F 6.6 °F 79% 30.08 in 10.0 mi South 12.7 mph - N/A   Overcast
5:55 AM 12.2 °F -2.5 °F 7.0 °F 80% 30.09 in 10.0 mi South 12.7 mph - N/A   Overcast
6:15 AM 12.6 °F -3.3 °F 7.3 °F 80% 30.08 in 10.0 mi South 15.0 mph - N/A   Overcast
6:35 AM 12.9 °F -1.6 °F 7.5 °F 79% 30.07 in 10.0 mi South 12.7 mph - N/A   Overcast
6:55 AM 13.1 °F -3.1 °F 7.7 °F 79% 30.07 in 10.0 mi South 16.1 mph - N/A   Overcast
7:15 AM 13.1 °F -3.1 °F 7.9 °F 80% 30.06 in 10.0 mi South 16.1 mph - N/A   Overcast
7:35 AM 13.6 °F 0.0 °F 8.6 °F 80% 30.06 in 10.0 mi South 11.5 mph - N/A   Overcast
7:55 AM 14.0 °F -0.8 °F 9.1 °F 81% 30.06 in 10.0 mi South 13.8 mph - N/A   Overcast
8:15 AM 14.5 °F -0.2 °F 9.5 °F 80% 30.05 in 10.0 mi South 13.8 mph - N/A   Overcast
8:35 AM 14.9 °F 0.3 °F 9.5 °F 79% 30.06 in 10.0 mi South 13.8 mph - N/A   Overcast
8:55 AM 15.8 °F 0.9 °F 10.0 °F 78% 30.05 in 10.0 mi South 15.0 mph - N/A   Overcast
9:15 AM 16.2 °F 1.9 °F 10.2 °F 77% 30.05 in 10.0 mi South 13.8 mph - N/A   Overcast
9:35 AM 16.7 °F 2.6 °F 10.9 °F 78% 30.06 in 10.0 mi South 13.8 mph - N/A   Overcast
9:55 AM 17.4 °F 4.1 °F 11.5 °F 78% 30.06 in 10.0 mi SSW 12.7 mph - N/A   Overcast
10:15 AM 18.0 °F 4.8 °F 12.2 °F 78% 30.06 in 10.0 mi South 12.7 mph - N/A   Overcast
10:35 AM 18.5 °F 6.1 °F 12.4 °F 77% 30.05 in 10.0 mi SSW 11.5 mph - N/A   Overcast
10:55 AM 19.4 °F 7.2 °F 12.4 °F 74% 30.04 in 10.0 mi SW 11.5 mph - N/A   Overcast
11:15 AM 20.3 °F 9.0 °F 11.8 °F 70% 30.04 in 10.0 mi South 10.4 mph - N/A   Overcast
11:35 AM 21.0 °F 9.3 °F 11.3 °F 66% 30.04 in 10.0 mi WSW 11.5 mph 17.3 mph N/A   Overcast
11:55 AM 22.3 °F 11.5 °F 12.9 °F 67% 30.03 in 10.0 mi West 10.4 mph 17.3 mph N/A   Mostly Cloudy
12:15 PM 22.8 °F 8.9 °F 12.7 °F 65% 30.03 in 10.0 mi West 17.3 mph 23.0 mph N/A   Mostly Cloudy
12:35 PM 23.2 °F 9.8 °F 13.5 °F 66% 30.02 in 10.0 mi West 16.1 mph 21.9 mph N/A   Mostly Cloudy
12:55 PM 23.0 °F 9.2 °F 13.5 °F 67% 30.02 in 10.0 mi North 17.3 mph 23.0 mph N/A   Mostly Cloudy
1:15 PM 24.1 °F 11.0 °F 14.4 °F 66% 30.01 in 10.0 mi WNW 16.1 mph - N/A   Mostly Cloudy
1:35 PM 24.6 °F 11.7 °F 15.1 °F 67% 30.01 in 10.0 mi West 16.1 mph 24.2 mph N/A   Scattered Clouds
1:55 PM 25.2 °F 12.9 °F 16.0 °F 68% 30.00 in 10.0 mi West 15.0 mph - N/A   Scattered Clouds
2:15 PM 25.7 °F 13.1 °F 16.0 °F 67% 30.00 in 10.0 mi West 16.1 mph 23.0 mph N/A   Scattered Clouds
2:35 PM 25.7 °F 13.1 °F 15.4 °F 65% 30.01 in 10.0 mi WNW 16.1 mph - N/A   Mostly Cloudy
2:55 PM 25.7 °F 11.5 °F 16.9 °F 69% 30.02 in 10.0 mi WNW 20.7 mph 26.5 mph N/A   Overcast
3:15 PM 25.2 °F 12.0 °F 16.2 °F 69% 30.03 in 10.0 mi NW 17.3 mph 25.3 mph N/A   Overcast
3:35 PM 24.8 °F 10.0 °F 15.3 °F 67% 30.04 in 10.0 mi WNW 21.9 mph 28.8 mph N/A   Overcast
3:55 PM 24.8 °F 11.5 °F 14.9 °F 66% 30.06 in 10.0 mi WNW 17.3 mph 24.2 mph N/A   Overcast
4:15 PM 24.8 °F 10.7 °F 15.6 °F 68% 30.06 in 10.0 mi WNW 19.6 mph - N/A   Overcast
4:35 PM 24.8 °F 12.4 °F 15.4 °F 68% 30.06 in 10.0 mi WNW 15.0 mph 20.7 mph N/A   Overcast
4:55 PM 24.8 °F 11.9 °F 15.3 °F 67% 30.07 in 10.0 mi WNW 16.1 mph - N/A   Overcast
5:15 PM 24.4 °F 13.5 °F 15.1 °F 68% 30.07 in 10.0 mi WNW 11.5 mph - N/A   Overcast
5:35 PM 24.3 °F 13.3 °F 14.5 °F 67% 30.08 in 10.0 mi WNW 11.5 mph 19.6 mph N/A   Overcast
5:55 PM 24.3 °F 13.3 °F 14.4 °F 66% 30.08 in 10.0 mi NW 11.5 mph - N/A   Overcast
6:15 PM 23.5 °F 13.7 °F 14.4 °F 68% 30.10 in 10.0 mi NW 9.2 mph - N/A   Mostly Cloudy
6:35 PM 21.4 °F 5.5 °F 13.8 °F 73% 30.11 in 10.0 mi North 21.9 mph 26.5 mph N/A   Scattered Clouds
6:55 PM 19.9 °F 4.8 °F 15.3 °F 82% 30.13 in 7.0 mi NNW 18.4 mph 25.3 mph N/A Snow Light Snow
7:15 PM 19.8 °F 5.9 °F 14.5 °F 80% 30.15 in 10.0 mi NW 15.0 mph 20.7 mph N/A   Mostly Cloudy
7:35 PM 19.9 °F 7.3 °F 13.6 °F 77% 30.15 in 10.0 mi NW 12.7 mph - N/A   Overcast
7:55 PM 19.6 °F 6.2 °F 12.6 °F 74% 30.16 in 10.0 mi NW 13.8 mph 24.2 mph N/A   Overcast
8:15 PM 19.9 °F 5.7 °F 11.3 °F 69% 30.16 in 10.0 mi NW 16.1 mph 25.3 mph N/A   Overcast
8:35 PM 19.0 °F 4.5 °F 9.9 °F 67% 30.17 in 10.0 mi NW 16.1 mph 28.8 mph N/A   Mostly Cloudy
8:55 PM 18.3 °F 4.6 °F 8.6 °F 66% 30.18 in 10.0 mi NW 13.8 mph 27.6 mph N/A   Scattered Clouds
9:15 PM 17.2 °F 2.2 °F 8.4 °F 68% 30.19 in 10.0 mi NW 16.1 mph 25.3 mph N/A   Clear
9:35 PM 16.3 °F -2.0 °F 9.0 °F 73% 30.21 in 10.0 mi NW 24.2 mph 28.8 mph N/A   Scattered Clouds
9:55 PM 15.1 °F -3.7 °F 6.8 °F 70% 30.22 in 10.0 mi NW 24.2 mph 31.1 mph N/A   Scattered Clouds
10:15 PM 13.1 °F -6.7 °F 2.1 °F 62% 30.23 in 10.0 mi NW 25.3 mph 32.2 mph N/A   Clear
10:35 PM 12.2 °F -5.8 °F 2.5 °F 65% 30.25 in 10.0 mi NW 19.6 mph 25.3 mph N/A   Clear
10:55 PM 10.9 °F -6.5 °F 1.0 °F 64% 30.27 in 10.0 mi NNW 17.3 mph 28.8 mph N/A   Clear
11:15 PM 9.9 °F -8.9 °F 6.4 °F 86% 30.28 in 2.0 mi NNW 19.6 mph - N/A Snow Light Snow
11:35 PM 9.0 °F -10.5 °F 3.7 °F 79% 30.30 in 3.0 mi NW 20.7 mph 26.5 mph N/A Snow Light Snow
11:55 PM 6.8 °F -13.4 °F -1.3 °F 69% 30.32 in 10.0 mi NNW 20.7 mph 25.3 mph N/A   Scattered Clouds